Overview Statistics Trail Chart Weather Telemetry Raw packets
 

This is the latest recevied weather packets stored in our database for station/object 4S6DRJ-13. If no packets are shown the sender has not sent any weather packets the latest 10 day(s).

<< 483 484 485 486 487 488 489 >>
Time Temp. Humidity Pressure Rain* Wind** Luminosity Snow
1787715366 28.89° C 78% 1011.9 hPa 0 mm 2.24 m/s, 287° 702 W/m² -
1787715305 28.89° C 78% 1011.7 hPa 0 mm 3.13 m/s, 238° 683 W/m² -
1787715245 28.89° C 78% 1011.8 hPa 0 mm 2.24 m/s, 239° 713 W/m² -
1787715183 28.89° C 78% 1011.8 hPa 0 mm 1.79 m/s, 234° 621 W/m² -
1787715122 28.89° C 79% 1012 hPa 0 mm 1.79 m/s, 217° 637 W/m² -
1787715061 28.89° C 80% 1011.7 hPa 0 mm 2.24 m/s, 228° 711 W/m² -
1787715000 28.89° C 80% 1011.7 hPa 0 mm 2.24 m/s, 247° 722 W/m² -
1787714940 28.89° C 80% 1011.7 hPa 0 mm 1.79 m/s, 179° 667 W/m² -
1787714878 28.89° C 81% 1011.8 hPa 0 mm 1.79 m/s, 239° 663 W/m² -
1787714818 28.89° C 80% 1011.8 hPa 0 mm 2.24 m/s, 227° 609 W/m² -
1787714757 28.89° C 81% 1011.5 hPa 0 mm 1.79 m/s, 215° 453 W/m² -
1787714695 28.89° C 82% 1011.8 hPa 0 mm 1.34 m/s, 243° 368 W/m² -
1787714634 28.89° C 82% 1011.7 hPa 0 mm 0.45 m/s, 20° 345 W/m² -
1787714576 28.89° C 82% 1011.7 hPa 0 mm 0.89 m/s, 229° 357 W/m² -
1787714512 28.89° C 81% 1011.6 hPa 0 mm 1.79 m/s, 126° 457 W/m² -
1787714451 28.89° C 82% 1011.7 hPa 0 mm 2.24 m/s, 199° 552 W/m² -
1787714390 28.89° C 82% 1011.6 hPa 0 mm 1.34 m/s, 189° 529 W/m² -
1787714329 28.89° C 82% 1011.6 hPa 0 mm 0.45 m/s, 162° 515 W/m² -
1787714268 28.89° C 82% 1011.6 hPa 0 mm 1.34 m/s, 252° 471 W/m² -
1787714207 28.89° C 81% 1011.6 hPa 0 mm 1.34 m/s, 238° 430 W/m² -
1787714146 28.89° C 82% 1011.6 hPa 0 mm 1.34 m/s, 218° 398 W/m² -
1787714085 28.89° C 82% 1011.4 hPa 0 mm 2.24 m/s, 230° 366 W/m² -
1787714024 28.89° C 81% 1011.8 hPa 0 mm 1.34 m/s, 212° 353 W/m² -
1787713963 28.89° C 82% 1011.4 hPa 0 mm 1.34 m/s, 249° 341 W/m² -
1787713902 28.89° C 81% 1011.5 hPa 0 mm 1.79 m/s, 208° 385 W/m² -

* Rain latest hour (hover to see other rain measurements)
** Current wind speed in m/s (hover to see current wind gust speed)